RYR9436 EDLV-LERS

Flight info

Callsign RYR9436
Flight time 1h 53m
Altitude 38000
Route VEBAK4S VEBAK Z283 LNO DCT RASCA DCT FAMEN DCT AHVEC UN857 DISAK DCT DIRMO DCT VALKU DCT ATSUP DCT MINSO DCT DEGOL DCT PPG DCT ALBER P84 GIR
Aircraft B738/M-SDE3FGILRWY/SB1

Departure

Time 2026-04-25 15:21
Airport Weeze (Niederrhein) Airport (EDLV)

Arrival

Time 2026-04-25 17:14
Airport Reus Airport (LERS)
Time Latitude Longitude Altitude Speed Heading
2026-04-25 14:55 51.59956 6.14867 112 ft 0 kts 92°
2026-04-25 15:13 51.59956 6.14862 112 ft 3 kts 92°
2026-04-25 15:14 51.59957 6.14820 112 ft 4 kts 91°
2026-04-25 15:14 51.59958 6.14800 112 ft 1 kts 91°
2026-04-25 15:17 51.59969 6.14806 109 ft 4 kts 358°
2026-04-25 15:17 51.60023 6.14800 111 ft 11 kts 17°
2026-04-25 15:18 51.60042 6.14921 112 ft 14 kts 91°
2026-04-25 15:18 51.60036 6.15274 115 ft 16 kts 92°
2026-04-25 15:18 51.60032 6.15447 116 ft 15 kts 92°
2026-04-25 15:19 51.60027 6.15626 114 ft 17 kts 91°
2026-04-25 15:19 51.60025 6.15755 115 ft 17 kts 92°
2026-04-25 15:19 51.60082 6.15947 114 ft 18 kts
2026-04-25 15:19 51.60198 6.15954 113 ft 5 kts 345°
2026-04-25 15:20 51.60209 6.15896 111 ft 6 kts 271°
2026-04-25 15:20 51.60217 6.15493 118 ft 74 kts 272°
2026-04-25 15:20 51.60244 6.14268 112 ft 141 kts 272°
2026-04-25 15:20 51.60282 6.12563 632 ft 160 kts 272°
2026-04-25 15:21 51.60514 6.10774 1434 ft 165 kts 305°
2026-04-25 15:21 51.61391 6.09723 2543 ft 161 kts 342°
2026-04-25 15:21 51.62513 6.09736 3332 ft 173 kts 16°
2026-04-25 15:21 51.63471 6.10946 4182 ft 183 kts 52°
2026-04-25 15:22 51.63876 6.12976 4943 ft 202 kts 83°
2026-04-25 15:22 51.63614 6.15243 5732 ft 212 kts 109°
2026-04-25 15:22 51.62791 6.17281 6277 ft 231 kts 140°
2026-04-25 15:22 51.61412 6.18762 6516 ft 252 kts 149°
2026-04-25 15:23 51.59859 6.20296 6831 ft 268 kts 149°
2026-04-25 15:23 51.58243 6.21912 7331 ft 281 kts 149°
2026-04-25 15:23 51.56534 6.23646 7760 ft 297 kts 148°
2026-04-25 15:23 51.54774 6.25454 8609 ft 300 kts 148°
2026-04-25 15:24 51.53038 6.27259 9564 ft 302 kts 148°
2026-04-25 15:24 51.51254 6.29116 10366 ft 308 kts 148°
2026-04-25 15:24 51.49407 6.31042 10754 ft 329 kts 148°
2026-04-25 15:24 51.48058 6.32394 10886 ft 346 kts 153°
2026-04-25 15:25 51.44926 6.33505 11627 ft 354 kts 187°
2026-04-25 15:25 51.42562 6.32546 12464 ft 349 kts 206°
2026-04-25 15:25 51.40341 6.30941 13319 ft 351 kts 208°
2026-04-25 15:25 51.38118 6.29250 14081 ft 356 kts 209°
2026-04-25 15:26 51.35868 6.27523 14784 ft 360 kts 209°
2026-04-25 15:26 51.33626 6.25810 15496 ft 363 kts 209°
2026-04-25 15:26 51.31333 6.24074 16199 ft 367 kts 208°
2026-04-25 15:26 51.29003 6.22325 16903 ft 371 kts 208°
2026-04-25 15:27 51.26653 6.20572 17605 ft 375 kts 208°
2026-04-25 15:27 51.24276 6.18807 18297 ft 378 kts 208°
2026-04-25 15:27 51.19469 6.15253 19473 ft 386 kts 208°
2026-04-25 15:28 51.17016 6.13445 20041 ft 390 kts 208°
2026-04-25 15:28 51.14572 6.11645 20603 ft 394 kts 208°
2026-04-25 15:28 51.12070 6.09805 21159 ft 398 kts 208°
2026-04-25 15:28 51.09540 6.07947 21699 ft 402 kts 208°
2026-04-25 15:29 51.06977 6.06065 22147 ft 409 kts 208°
2026-04-25 15:29 51.04370 6.04154 22624 ft 414 kts 208°
2026-04-25 15:29 51.01739 6.02229 23151 ft 417 kts 209°
2026-04-25 15:29 50.99119 6.00314 23667 ft 421 kts 209°
2026-04-25 15:30 50.96436 5.98356 24096 ft 424 kts 209°
2026-04-25 15:30 50.93741 5.96393 24562 ft 426 kts 209°
2026-04-25 15:30 50.91041 5.94428 25031 ft 428 kts 209°
2026-04-25 15:30 50.88330 5.92457 25477 ft 430 kts 209°
2026-04-25 15:31 50.85595 5.90471 25920 ft 432 kts 209°
2026-04-25 15:31 50.82881 5.88503 26343 ft 435 kts 209°
2026-04-25 15:31 50.80121 5.86503 26761 ft 437 kts 209°
2026-04-25 15:31 50.77341 5.84491 27173 ft 439 kts 209°
2026-04-25 15:32 50.74581 5.82497 27571 ft 441 kts 208°
2026-04-25 15:32 50.71789 5.80483 27975 ft 443 kts 208°
2026-04-25 15:32 50.68977 5.78456 28369 ft 445 kts 208°
2026-04-25 15:33 50.63315 5.74383 29127 ft 449 kts 208°
2026-04-25 15:33 50.60527 5.72170 29475 ft 447 kts 216°
2026-04-25 15:33 50.58006 5.69324 29835 ft 444 kts 224°
2026-04-25 15:33 50.55802 5.65940 30161 ft 441 kts 233°
2026-04-25 15:34 50.53849 5.62217 30478 ft 441 kts 235°
2026-04-25 15:34 50.51921 5.58464 30823 ft 441 kts 235°
2026-04-25 15:34 50.49998 5.54720 31255 ft 439 kts 234°
2026-04-25 15:34 50.49348 5.53460 31417 ft 438 kts 234°
2026-04-25 15:35 50.44245 5.43686 32509 ft 433 kts 234°
2026-04-25 15:35 50.42324 5.40043 32881 ft 432 kts 234°
2026-04-25 15:35 50.40430 5.36462 33259 ft 430 kts 234°
2026-04-25 15:36 50.36615 5.29266 34029 ft 427 kts 233°
2026-04-25 15:36 50.34713 5.25687 34365 ft 426 kts 233°
2026-04-25 15:36 50.32813 5.22113 34655 ft 426 kts 233°
2026-04-25 15:37 50.30918 5.18554 34908 ft 426 kts 233°
2026-04-25 15:37 50.29017 5.14989 35181 ft 425 kts 233°
2026-04-25 15:37 50.27141 5.11475 35468 ft 424 kts 233°
2026-04-25 15:37 50.25250 5.07939 35731 ft 424 kts 233°
2026-04-25 15:38 50.23354 5.04395 35978 ft 424 kts 233°
2026-04-25 15:38 50.21459 5.00861 36235 ft 424 kts 233°
2026-04-25 15:38 50.19565 4.97333 36504 ft 423 kts 233°
2026-04-25 15:38 50.17677 4.93817 36746 ft 423 kts 233°
2026-04-25 15:39 50.15785 4.90303 36979 ft 422 kts 233°
2026-04-25 15:39 50.13917 4.86839 37238 ft 422 kts 233°
2026-04-25 15:39 50.12025 4.83348 37476 ft 421 kts 232°
2026-04-25 15:39 50.10129 4.79858 37713 ft 421 kts 232°
2026-04-25 15:40 50.08238 4.76381 37950 ft 420 kts 232°
2026-04-25 15:40 50.07599 4.75207 38024 ft 420 kts 232°
2026-04-25 15:40 50.04445 4.69415 38131 ft 423 kts 232°
2026-04-25 15:40 50.02542 4.65926 38157 ft 422 kts 232°
2026-04-25 15:41 49.98778 4.59038 38149 ft 419 kts 232°
2026-04-25 15:41 49.94914 4.52298 38150 ft 416 kts 229°
2026-04-25 15:42 49.90910 4.45821 38151 ft 415 kts 229°
2026-04-25 15:42 49.86906 4.39387 38154 ft 414 kts 229°
2026-04-25 15:43 49.82941 4.32984 38155 ft 414 kts 229°
2026-04-25 15:43 49.78956 4.26535 38152 ft 415 kts 229°
2026-04-25 15:44 49.74952 4.20063 38148 ft 417 kts 229°
2026-04-25 15:44 49.70926 4.13573 38148 ft 418 kts 229°
2026-04-25 15:45 49.66905 4.07108 38152 ft 420 kts 228°
2026-04-25 15:45 49.64190 4.02751 38150 ft 421 kts 228°
2026-04-25 15:46 49.58771 3.94079 38142 ft 422 kts 228°
2026-04-25 15:46 49.55373 3.88658 38143 ft 423 kts 228°
2026-04-25 15:47 49.51276 3.82135 38143 ft 423 kts 228°
2026-04-25 15:47 49.47209 3.75676 38144 ft 422 kts 228°
2026-04-25 15:48 49.42844 3.69598 38154 ft 423 kts 221°
2026-04-25 15:48 49.38237 3.63956 38137 ft 423 kts 220°
2026-04-25 15:49 49.33628 3.58329 38142 ft 422 kts 221°
2026-04-25 15:49 49.29073 3.52708 38138 ft 422 kts 221°
2026-04-25 15:50 49.24533 3.47084 38139 ft 421 kts 221°
2026-04-25 15:50 49.19975 3.41442 38140 ft 420 kts 221°
2026-04-25 15:51 49.16198 3.36776 38137 ft 420 kts 221°
2026-04-25 15:51 49.10909 3.30260 38138 ft 419 kts 221°
2026-04-25 15:52 49.06356 3.24665 38137 ft 419 kts 221°
2026-04-25 15:52 49.01813 3.19097 38135 ft 419 kts 220°
2026-04-25 15:53 48.97253 3.13521 38135 ft 419 kts 220°
2026-04-25 15:53 48.92728 3.08002 38132 ft 419 kts 220°
2026-04-25 15:54 48.88172 3.02458 38132 ft 419 kts 220°
2026-04-25 15:54 48.83614 2.96924 38129 ft 420 kts 220°
2026-04-25 15:55 48.79039 2.91384 38124 ft 420 kts 220°
2026-04-25 15:55 48.74498 2.85898 38127 ft 420 kts 220°
2026-04-25 15:56 48.69917 2.80377 38129 ft 420 kts 220°
2026-04-25 15:56 48.65329 2.74860 38130 ft 421 kts 220°
2026-04-25 15:57 48.60739 2.69355 38133 ft 421 kts 220°
2026-04-25 15:57 48.56168 2.63885 38132 ft 421 kts 220°
2026-04-25 15:58 48.51577 2.58403 38131 ft 421 kts 220°
2026-04-25 15:58 48.46976 2.52924 38123 ft 421 kts 220°
2026-04-25 15:59 48.42181 2.47985 38107 ft 424 kts 203°
2026-04-25 15:59 48.39334 2.46791 38121 ft 427 kts 191°
2026-04-25 15:59 48.36350 2.46557 38114 ft 431 kts 180°
2026-04-25 16:00 48.32342 2.46871 38232 ft 429 kts 180°
2026-04-25 16:00 48.27368 2.47291 38487 ft 431 kts 180°
2026-04-25 16:00 48.24365 2.47531 38599 ft 433 kts 180°
2026-04-25 16:01 48.21386 2.47756 38745 ft 433 kts 180°
2026-04-25 16:01 48.18379 2.47974 38932 ft 432 kts 180°
2026-04-25 16:01 48.15372 2.48185 39086 ft 431 kts 180°
2026-04-25 16:01 48.12369 2.48390 39093 ft 434 kts 180°
2026-04-25 16:02 48.06317 2.48800 39107 ft 434 kts 180°
2026-04-25 16:02 48.00272 2.49209 39116 ft 433 kts 180°
2026-04-25 16:03 47.94283 2.49614 39108 ft 432 kts 180°
2026-04-25 16:03 47.88280 2.50018 39117 ft 431 kts 180°
2026-04-25 16:04 47.82290 2.50421 39103 ft 430 kts 180°
2026-04-25 16:04 47.76339 2.50820 39113 ft 430 kts 180°
2026-04-25 16:05 47.70356 2.51220 39106 ft 430 kts 180°
2026-04-25 16:06 47.61378 2.51819 39101 ft 430 kts 180°
2026-04-25 16:06 47.55424 2.52216 39097 ft 431 kts 180°
2026-04-25 16:07 47.49423 2.52614 39094 ft 431 kts 180°
2026-04-25 16:07 47.43412 2.53012 39095 ft 432 kts 180°
2026-04-25 16:08 47.37424 2.53408 39086 ft 433 kts 180°
2026-04-25 16:08 47.31379 2.53807 39092 ft 434 kts 180°
2026-04-25 16:09 47.25382 2.54202 39089 ft 434 kts 180°
2026-04-25 16:09 47.19332 2.54599 39090 ft 435 kts 180°
2026-04-25 16:10 47.13281 2.54995 39092 ft 435 kts 180°
2026-04-25 16:10 47.07220 2.55392 39093 ft 435 kts 180°
2026-04-25 16:11 47.01213 2.55783 39090 ft 434 kts 180°
2026-04-25 16:11 46.95173 2.56176 39089 ft 434 kts 180°
2026-04-25 16:12 46.89139 2.56568 39096 ft 433 kts 180°
2026-04-25 16:12 46.83107 2.56959 39090 ft 433 kts 180°
2026-04-25 16:13 46.77092 2.57348 39089 ft 432 kts 180°
2026-04-25 16:13 46.71119 2.57733 39094 ft 432 kts 180°
2026-04-25 16:14 46.65111 2.58119 39091 ft 432 kts 180°
2026-04-25 16:14 46.59100 2.58505 39092 ft 431 kts 180°
2026-04-25 16:15 46.53103 2.58889 39093 ft 431 kts 180°
2026-04-25 16:15 46.47148 2.59269 39098 ft 431 kts 180°
2026-04-25 16:16 46.41153 2.59651 39099 ft 431 kts 180°
2026-04-25 16:16 46.35143 2.60034 39100 ft 431 kts 180°
2026-04-25 16:17 46.29169 2.60413 39106 ft 432 kts 180°
2026-04-25 16:17 46.23157 2.60794 39097 ft 432 kts 180°
2026-04-25 16:18 46.17132 2.61175 39107 ft 433 kts 180°
2026-04-25 16:18 46.11099 2.61555 39104 ft 433 kts 180°
2026-04-25 16:19 46.05105 2.61933 39095 ft 434 kts 180°
2026-04-25 16:19 45.99066 2.62312 39103 ft 434 kts 180°
2026-04-25 16:20 45.90012 2.62879 39103 ft 434 kts 180°
2026-04-25 16:21 45.80990 2.63442 39109 ft 434 kts 180°
2026-04-25 16:21 45.74945 2.63819 39103 ft 434 kts 180°
2026-04-25 16:22 45.68935 2.64192 39107 ft 434 kts 180°
2026-04-25 16:22 45.62880 2.64567 39105 ft 434 kts 180°
2026-04-25 16:23 45.56840 2.64941 39110 ft 434 kts 180°
2026-04-25 16:23 45.50828 2.65312 39105 ft 434 kts 180°
2026-04-25 16:24 45.44773 2.65685 39111 ft 434 kts 180°
2026-04-25 16:24 45.38728 2.66056 39113 ft 434 kts 180°
2026-04-25 16:25 45.32720 2.66424 39109 ft 434 kts 180°
2026-04-25 16:25 45.26683 2.66794 39111 ft 434 kts 180°
2026-04-25 16:26 45.20640 2.67163 39114 ft 434 kts 180°
2026-04-25 16:26 45.14595 2.67531 39109 ft 434 kts 180°
2026-04-25 16:27 45.08602 2.67896 39122 ft 433 kts 180°
2026-04-25 16:27 45.02570 2.68262 39120 ft 433 kts 180°
2026-04-25 16:28 44.96579 2.68625 39125 ft 433 kts 180°
2026-04-25 16:28 44.90526 2.68990 39123 ft 434 kts 180°
2026-04-25 16:29 44.84519 2.69352 39129 ft 434 kts 180°
2026-04-25 16:29 44.78471 2.69716 39124 ft 435 kts 180°
2026-04-25 16:30 44.72422 2.70080 39118 ft 435 kts 180°
2026-04-25 16:30 44.66381 2.70441 39120 ft 436 kts 180°
2026-04-25 16:31 44.60315 2.70804 39120 ft 436 kts 180°
2026-04-25 16:31 44.54247 2.71167 39128 ft 436 kts 180°
2026-04-25 16:32 44.48186 2.71527 39126 ft 435 kts 180°
2026-04-25 16:32 44.42131 2.71887 39116 ft 436 kts 180°
2026-04-25 16:33 44.36112 2.72244 39123 ft 435 kts 180°
2026-04-25 16:33 44.30052 2.72603 39118 ft 435 kts 180°
2026-04-25 16:34 44.23987 2.72961 39121 ft 435 kts 180°
2026-04-25 16:34 44.17971 2.73315 39113 ft 435 kts 180°
2026-04-25 16:35 44.11911 2.73672 39108 ft 435 kts 180°
2026-04-25 16:35 44.06874 2.73967 39110 ft 435 kts 180°
2026-04-25 16:36 44.00808 2.74323 39107 ft 435 kts 180°
2026-04-25 16:36 43.94777 2.74675 39111 ft 435 kts 179°
2026-04-25 16:37 43.88707 2.75029 39105 ft 436 kts 180°
2026-04-25 16:37 43.82640 2.75383 39110 ft 436 kts 179°
2026-04-25 16:38 43.76576 2.75735 39103 ft 436 kts 180°
2026-04-25 16:38 43.70540 2.76085 39104 ft 436 kts 180°
2026-04-25 16:39 43.64458 2.76437 39100 ft 436 kts 180°
2026-04-25 16:39 43.58375 2.76789 39099 ft 437 kts 179°
2026-04-25 16:40 43.52339 2.77137 39099 ft 437 kts 180°
2026-04-25 16:40 43.46250 2.77487 39091 ft 437 kts 179°
2026-04-25 16:41 43.40152 2.77836 39077 ft 437 kts 179°
2026-04-25 16:41 43.31061 2.78357 39068 ft 438 kts 179°
2026-04-25 16:42 43.24967 2.78705 39058 ft 439 kts 179°
2026-04-25 16:42 43.18856 2.79054 39054 ft 439 kts 179°
2026-04-25 16:43 43.12780 2.79400 39051 ft 439 kts 179°
2026-04-25 16:43 43.06660 2.79747 39053 ft 440 kts 179°
2026-04-25 16:44 43.00534 2.80095 39050 ft 440 kts 179°
2026-04-25 16:44 42.94400 2.80441 38982 ft 442 kts 179°
2026-04-25 16:45 42.91289 2.80616 38449 ft 449 kts 179°
2026-04-25 16:45 42.88181 2.80791 37918 ft 445 kts 179°
2026-04-25 16:45 42.85145 2.80964 37572 ft 439 kts 179°
2026-04-25 16:45 42.82098 2.81137 37135 ft 435 kts 179°
2026-04-25 16:46 42.79083 2.81307 36755 ft 431 kts 179°
2026-04-25 16:46 42.76095 2.81475 36360 ft 427 kts 179°
2026-04-25 16:46 42.73139 2.81641 35978 ft 423 kts 179°
2026-04-25 16:46 42.71198 2.81749 35718 ft 421 kts 179°
2026-04-25 16:47 42.67294 2.81968 35200 ft 417 kts 179°
2026-04-25 16:47 42.64398 2.82130 34816 ft 415 kts 179°
2026-04-25 16:47 42.61522 2.82290 34433 ft 412 kts 179°
2026-04-25 16:47 42.58662 2.82450 34053 ft 410 kts 179°
2026-04-25 16:48 42.55844 2.82607 33632 ft 408 kts 179°
2026-04-25 16:48 42.53005 2.82766 33217 ft 406 kts 179°
2026-04-25 16:48 42.50181 2.82923 32833 ft 403 kts 179°
2026-04-25 16:48 42.47383 2.83079 32453 ft 401 kts 178°
2026-04-25 16:49 42.44610 2.83185 32065 ft 395 kts 182°
2026-04-25 16:49 42.41926 2.82980 31549 ft 389 kts 186°
2026-04-25 16:49 42.39214 2.82650 31044 ft 393 kts 187°
2026-04-25 16:49 42.36460 2.82282 30543 ft 399 kts 187°
2026-04-25 16:50 42.34630 2.82040 30209 ft 399 kts 186°
2026-04-25 16:50 42.30938 2.81571 29437 ft 395 kts 186°
2026-04-25 16:50 42.28204 2.81240 28858 ft 392 kts 186°
2026-04-25 16:50 42.25527 2.80925 28299 ft 389 kts 186°
2026-04-25 16:51 42.22832 2.80612 27749 ft 386 kts 186°
2026-04-25 16:51 42.20169 2.80305 27207 ft 383 kts 186°
2026-04-25 16:51 42.17523 2.80001 26682 ft 379 kts 186°
2026-04-25 16:51 42.15785 2.79801 26339 ft 377 kts 186°
2026-04-25 16:52 42.12292 2.79400 25653 ft 374 kts 186°
2026-04-25 16:52 42.09707 2.79103 25153 ft 371 kts 186°
2026-04-25 16:52 42.07175 2.78812 24669 ft 369 kts 186°
2026-04-25 16:52 42.04623 2.78519 24184 ft 366 kts 186°
2026-04-25 16:53 41.99563 2.77934 23151 ft 361 kts 188°
2026-04-25 16:53 41.97194 2.77024 22569 ft 357 kts 210°
2026-04-25 16:53 41.95242 2.75033 22024 ft 350 kts 230°
2026-04-25 16:54 41.93732 2.72501 21524 ft 346 kts 235°
2026-04-25 16:54 41.92340 2.69869 20979 ft 344 kts 237°
2026-04-25 16:54 41.91012 2.67207 20576 ft 339 kts 238°
2026-04-25 16:54 41.89733 2.64599 20334 ft 329 kts 238°
2026-04-25 16:55 41.88491 2.62062 20090 ft 329 kts 238°
2026-04-25 16:55 41.87224 2.59479 19850 ft 329 kts 238°
2026-04-25 16:55 41.85975 2.56946 19577 ft 320 kts 238°
2026-04-25 16:55 41.84758 2.54489 19262 ft 312 kts 238°
2026-04-25 16:56 41.83564 2.52085 18965 ft 307 kts 238°
2026-04-25 16:56 41.82396 2.49740 18666 ft 305 kts 238°
2026-04-25 16:56 41.81213 2.47366 18354 ft 308 kts 238°
2026-04-25 16:56 41.79992 2.44918 17989 ft 323 kts 237°
2026-04-25 16:57 41.78722 2.42374 17434 ft 330 kts 237°
2026-04-25 16:57 41.77872 2.40673 17178 ft 330 kts 237°
2026-04-25 16:57 41.76165 2.37264 16706 ft 329 kts 237°
2026-04-25 16:57 41.74907 2.34753 16355 ft 327 kts 237°
2026-04-25 16:58 41.73637 2.32230 16014 ft 326 kts 237°
2026-04-25 16:58 41.72373 2.29714 15689 ft 324 kts 238°
2026-04-25 16:58 41.71114 2.27211 15369 ft 323 kts 238°
2026-04-25 16:58 41.69858 2.24713 15024 ft 322 kts 238°
2026-04-25 16:59 41.68610 2.22231 14701 ft 321 kts 238°
2026-04-25 16:59 41.67361 2.19752 14373 ft 320 kts 238°
2026-04-25 16:59 41.66130 2.17308 14051 ft 319 kts 238°
2026-04-25 16:59 41.64887 2.14844 13694 ft 319 kts 238°
2026-04-25 17:00 41.63646 2.12388 13331 ft 317 kts 238°
2026-04-25 17:00 41.62410 2.09945 12984 ft 316 kts 238°
2026-04-25 17:00 41.61181 2.07516 12666 ft 314 kts 238°
2026-04-25 17:00 41.59959 2.05101 12322 ft 313 kts 238°
2026-04-25 17:01 41.58744 2.02705 12001 ft 311 kts 238°
2026-04-25 17:01 41.57529 2.00309 11667 ft 310 kts 238°
2026-04-25 17:01 41.56317 1.97920 11331 ft 309 kts 238°
2026-04-25 17:01 41.55132 1.95585 11027 ft 308 kts 238°
2026-04-25 17:02 41.53932 1.93225 10699 ft 307 kts 238°
2026-04-25 17:02 41.52731 1.90862 10398 ft 306 kts 238°
2026-04-25 17:02 41.51539 1.88519 10198 ft 300 kts 237°
2026-04-25 17:02 41.50372 1.86231 10024 ft 294 kts 238°
2026-04-25 17:03 41.49256 1.84043 9789 ft 289 kts 238°
2026-04-25 17:03 41.48061 1.81834 9238 ft 294 kts 231°
2026-04-25 17:03 41.46684 1.79825 8833 ft 290 kts 227°
2026-04-25 17:03 41.45283 1.77924 8492 ft 283 kts 227°
2026-04-25 17:04 41.43914 1.76076 8188 ft 275 kts 226°
2026-04-25 17:04 41.42611 1.74298 7906 ft 268 kts 227°
2026-04-25 17:04 41.41332 1.72539 7626 ft 260 kts 227°
2026-04-25 17:04 41.40090 1.70820 7355 ft 254 kts 227°
2026-04-25 17:05 41.38875 1.69130 7096 ft 251 kts 227°
2026-04-25 17:05 41.36444 1.65735 6605 ft 262 kts 226°
2026-04-25 17:05 41.35164 1.63946 6219 ft 268 kts 226°
2026-04-25 17:06 41.33894 1.62170 5904 ft 261 kts 226°
2026-04-25 17:06 41.32658 1.60442 5613 ft 254 kts 226°
2026-04-25 17:06 41.31451 1.58756 5342 ft 248 kts 226°
2026-04-25 17:06 41.30279 1.57117 5117 ft 240 kts 226°
2026-04-25 17:07 41.29167 1.55563 5035 ft 223 kts 226°
2026-04-25 17:07 41.28136 1.54123 4905 ft 207 kts 226°
2026-04-25 17:07 41.27172 1.52777 4819 ft 200 kts 226°
2026-04-25 17:07 41.26261 1.51507 4747 ft 196 kts 226°
2026-04-25 17:08 41.25342 1.50226 4680 ft 187 kts 226°
2026-04-25 17:08 41.24452 1.48986 4577 ft 186 kts 226°
2026-04-25 17:08 41.23771 1.47526 4357 ft 187 kts 249°
2026-04-25 17:08 41.23318 1.45964 4192 ft 175 kts 246°
2026-04-25 17:09 41.22883 1.44554 4036 ft 159 kts 247°
2026-04-25 17:09 41.22482 1.43207 3868 ft 156 kts 247°
2026-04-25 17:09 41.22089 1.41883 3809 ft 150 kts 247°
2026-04-25 17:09 41.21695 1.40535 3660 ft 159 kts 247°
2026-04-25 17:10 41.21431 1.39634 3573 ft 157 kts 246°
2026-04-25 17:10 41.20900 1.37852 3297 ft 154 kts 247°
2026-04-25 17:10 41.20525 1.36562 3115 ft 152 kts 246°
2026-04-25 17:10 41.20139 1.35236 2884 ft 152 kts 246°
2026-04-25 17:11 41.19760 1.33936 2698 ft 152 kts 246°
2026-04-25 17:11 41.19375 1.32627 2503 ft 153 kts 245°
2026-04-25 17:11 41.18988 1.31316 2295 ft 151 kts 246°
2026-04-25 17:11 41.18611 1.30008 2088 ft 152 kts 246°
2026-04-25 17:12 41.18232 1.28706 1874 ft 150 kts 246°
2026-04-25 17:12 41.17856 1.27417 1675 ft 150 kts 246°
2026-04-25 17:12 41.17478 1.26127 1453 ft 149 kts 247°
2026-04-25 17:12 41.17106 1.24848 1255 ft 148 kts 248°
2026-04-25 17:13 41.16730 1.23561 1083 ft 151 kts 247°
2026-04-25 17:13 41.16603 1.23123 1012 ft 151 kts 247°
2026-04-25 17:13 41.15987 1.21008 680 ft 144 kts 247°
2026-04-25 17:13 41.15626 1.19770 531 ft 144 kts 247°
2026-04-25 17:14 41.15264 1.18526 322 ft 143 kts 248°
2026-04-25 17:14 41.14933 1.17377 241 ft 120 kts 249°
2026-04-25 17:14 41.14689 1.16549 241 ft 56 kts 249°
2026-04-25 17:14 41.14586 1.16189 241 ft 36 kts 249°
2026-04-25 17:15 41.14523 1.15961 241 ft 18 kts 268°
2026-04-25 17:15 41.14595 1.15886 241 ft 14 kts 338°
2026-04-25 17:15 41.14648 1.15808 241 ft 13 kts 255°
2026-04-25 17:15 41.14614 1.15689 241 ft 14 kts 249°
2026-04-25 17:16 41.14610 1.15591 241 ft 8 kts 319°
2026-04-25 17:16 41.14656 1.15565 241 ft 5 kts 339°
2026-04-25 17:16 41.14667 1.15559 241 ft 0 kts 339°